Regional Weather Roundup
Issued by NWS Sioux Falls, SD

Home | Current Version | Previous Version | Text Only | Print | Product List | Glossary On
Versions: 1 2 3 4 5 6 7 8 9 10 11 12 13 14 15 16 17 18 19 20 21 22 23 24 25 26 27 28 29 30 31 32 33 34 35 36 37 38 39 40 41 42 43 44 45 46 47 48 49 50
000
ASUS43 KFSD 051810
RWRFSD

WEATHER ROUNDUP FOR SE SOUTH DAKOTA/SW MINNESOTA/NW IOWA
NATIONAL WEATHER SERVICE SIOUX FALLS SD
100 PM CDT SUN JUL 05 2015

NOTE: "FAIR" INDICATES FEW OR NO CLOUDS BELOW 12,000 FEET WITH NO
SIGNIFICANT WEATHER AND OR OBSTRUCTIONS TO VISIBILITY.


SDZ038>040-050-052>070-051900-
SOUTHEAST SOUTH DAKOTA

CITY           SKY/WX    TMP DP  RH WIND       PRES   REMARKS
BROOKINGS      SUNNY     82  68  61 S14G25    29.83R
CHAMBERLAIN    MOSUNNY   84  72  66 S9        29.78R
6HR MIN TEMP:  68; 6HR MAX TEMP:  84;

HURON          SUNNY     86  71  60 SW14      29.77R
6HR MIN TEMP:  68; 6HR MAX TEMP:  86;

MADISON        FAIR      82  66  57 SW18G25   29.81R
MITCHELL       MOSUNNY   88  70  55 S15G23    29.76F
6HR MIN TEMP:  71; 6HR MAX TEMP:  88;

SIOUX FALLS    MOSUNNY   86  66  51 S16       29.79F
6HR MIN TEMP:  67; 6HR MAX TEMP:  86; 6HR PCP:  0.04;

WINNER         FAIR      91  65  41 SE10      29.77R
YANKTON        MOSUNNY   88  66  48 S20       29.76S
$$

MNZ071-072-080-081-089-090-097-098-051900-
SOUTHWEST MINNESOTA

CITY           SKY/WX    TMP DP  RH WIND       PRES   REMARKS
FAIRMONT       PTSUNNY   79  64  61 S14G21    29.89R
JACKSON        PTSUNNY   81  68  65 S14G20    29.88F
LUVERNE        MOSUNNY   82  68  61 S13       29.83F
MARSHALL       PTSUNNY   84  64  51 SW14G23   29.81
6HR MIN TEMP:  70; 6HR MAX TEMP:  84;

MONTEVIDEO     PTSUNNY   86  70  58 S8        29.81R
PIPESTONE      MOSUNNY   82  66  57 S16       29.83S
REDWOOD FALLS  MOSUNNY   85  67  54 S15       29.83F
TRACY          PTSUNNY   83  69  61 SE12      29.84S
WINDOM         MOSUNNY   81  66  61 S8        29.86F
WORTHINGTON    MOSUNNY   82  66  57 S15G21    29.85S
$$

IAZ001>003-012>014-020>022-031-032-NEZ013-014-SDZ071-051900-
NORTHWEST IOWA

CITY           SKY/WX    TMP DP  RH WIND       PRES   REMARKS
CHEROKEE       SUNNY     81  71  71 SE15      29.86F
DENISON        CLOUDY    79  72  78 S10G22    29.88S
ESTHERVILLE    PTSUNNY   79  68  69 S16       29.88S
LE MARS        SUNNY     82  68  61 S16G25    29.83S
ORANGE CITY    SUNNY     81  64  57 S16G22    29.83F
SHELDON        MOSUNNY   82  70  65 S16G22    29.82F
SIOUX CITY     MOSUNNY   80  69  69 SE16G26   29.82F
6HR MIN TEMP:  67; 6HR MAX TEMP:  81; 6HR PCP:  0.02;

SPENCER        MOSUNNY   84  67  56 S16G23    29.86F
6HR MIN TEMP:  65; 6HR MAX TEMP:  85;

STORM LAKE     MOSUNNY   82  72  69 S16G24    29.89S
$$

ABBREVIATIONS USED IN REMARKS
   TC - TEMPERATURE IN CELSIUS
  WCI - WIND CHILL INDEX
   HX - HEAT INDEX
  VSB - VISIBILITY



USA.gov is the U.S. government's official web portal to all federal, state and local government web resources and services.